Total_Precipitation_Accumulation
2.46 2.48 2.47 2.42 2.27 2.35 2.60 2.78 2.77 3.13 3.29 2.91 2.52 2.35 2.37 2.47 2.35 2.32 2.19 2.03 1.99 2.22 2.68 2.94 2.84 2.63 2.36 2.09 1.95 1.89 1.75 1.58 1.48 1.34 1.30 1.39 1.42 1.38 1.30 1.23 1.19 1.14 1.06
2.62 2.80 2.72 2.64 2.46 2.42 2.61 2.81 2.97 3.45 3.41 3.24 2.82 2.56 2.49 2.45 2.26 2.18 2.29 2.43 2.26 2.18 2.34 2.73 3.06 3.03 2.88 2.61 2.31 2.16 2.01 1.91 1.73 1.42 1.27 1.35 1.44 1.45 1.44 1.42 1.34 1.21 1.08
2.67 2.70 2.56 2.46 2.51 2.62 2.82 2.86 3.06 3.29 3.00 3.02 2.84 2.62 2.44 2.25 2.09 2.06 2.23 2.41 2.28 2.22 2.37 2.61 2.91 3.04 3.18 3.23 3.11 2.91 2.46 2.12 1.93 1.69 1.45 1.39 1.42 1.40 1.39 1.44 1.44 1.28 1.11
2.54 2.78 2.58 2.42 2.73 2.74 2.89 3.20 3.35 3.30 3.26 3.29 3.04 2.65 2.40 2.30 1.97 1.85 1.83 2.01 2.25 2.04 2.35 2.61 2.68 2.82 3.19 3.59 3.85 3.82 3.39 2.86 2.44 2.13 1.87 1.69 1.64 1.50 1.31 1.24 1.31 1.27 1.11
2.58 2.90 2.90 2.96 2.99 3.08 3.14 2.99 3.43 3.49 3.38 3.40 2.97 2.74 2.40 2.13 1.93 1.74 1.66 1.66 1.89 2.12 2.25 2.32 2.41 2.58 3.07 3.86 4.22 4.27 4.20 3.75 3.09 2.68 2.50 2.33 2.17 1.88 1.56 1.38 1.32 1.27 1.16
2.70 3.12 2.99 2.96 3.02 3.19 3.27 3.24 3.42 3.46 3.20 3.16 2.84 2.74 2.34 1.86 1.77 1.71 1.54 1.55 1.66 1.70 2.01 2.33 2.57 2.32 2.65 3.27 3.73 4.27 4.62 4.37 3.70 3.24 3.07 2.93 2.82 2.49 1.96 1.66 1.56 1.46 1.33
2.72 3.17 2.99 3.22 3.17 3.17 3.18 3.24 3.38 3.30 3.01 3.19 3.28 2.84 2.28 1.85 1.83 1.60 1.53 1.58 1.63 1.63 1.96 2.37 2.65 2.58 2.33 2.40 2.77 3.30 4.01 4.33 4.08 3.68 3.48 3.29 3.28 3.03 2.42 2.05 1.89 1.69 1.57
2.93 2.97 3.15 3.10 3.16 3.28 3.22 3.22 3.36 3.16 2.81 3.06 3.41 3.47 2.81 2.40 1.94 1.46 1.56 1.67 1.81 1.90 1.98 2.11 2.32 2.57 2.57 2.70 2.45 2.37 3.03 3.85 4.33 4.26 3.91 3.44 3.24 3.11 2.78 2.55 2.27 2.03 1.91
3.16 3.16 3.11 3.01 3.02 2.83 2.92 3.00 3.02 3.03 2.96 2.88 3.21 3.56 3.13 2.65 2.30 1.72 1.59 1.61 1.84 2.14 2.17 2.19 2.22 2.46 2.60 3.01 3.09 2.74 2.58 3.00 3.78 4.54 4.53 3.90 3.27 2.94 2.87 2.81 2.69 2.41 2.22
2.96 2.78 2.71 2.86 2.88 2.67 2.71 2.38 2.53 2.72 2.73 2.58 2.86 2.95 2.99 2.96 2.88 2.22 1.77 1.59 1.73 1.95 2.15 2.08 2.12 2.37 2.65 2.95 3.22 3.07 2.60 2.42 2.78 3.73 4.34 4.24 3.74 3.22 2.95 2.95 3.18 3.10 2.72
2.66 2.33 2.36 2.55 2.52 2.44 2.35 2.24 2.40 2.31 2.28 2.33 2.55 2.75 2.83 2.90 2.77 2.62 2.21 2.13 2.06 1.92 1.90 1.98 2.19 2.33 2.56 2.90 3.24 3.01 2.82 2.58 2.42 2.59 3.11 3.56 3.73 3.56 3.38 3.60 4.06 4.23 3.96
2.33 2.05 1.96 2.13 2.24 2.27 2.22 2.20 2.28 2.20 2.25 2.39 2.39 2.45 2.68 2.70 2.67 2.82 2.44 2.28 2.24 1.98 1.95 2.08 2.12 2.32 2.43 2.68 2.77 2.87 2.78 2.56 2.38 2.33 2.46 2.76 3.04 3.19 3.31 3.63 4.18 4.58 4.74
1.98 1.94 1.96 2.05 2.09 2.13 1.99 2.07 2.15 2.21 2.38 2.44 2.37 2.30 2.42 2.49 2.62 2.85 2.79 2.51 2.37 2.17 2.24 2.21 2.09 2.16 2.10 2.28 2.40 2.47 2.28 2.14 2.02 1.97 2.02 2.13 2.19 2.38 2.66 3.10 3.65 4.17 4.49
1.97 2.04 2.01 1.89 1.83 1.93 1.83 2.09 2.04 2.11 2.33 2.37 2.14 2.37 2.42 2.45 2.74 2.95 3.04 3.13 2.84 2.56 2.48 2.44 2.31 2.14 2.11 2.14 2.21 2.17 1.97 1.89 1.63 1.60 1.66 1.76 1.83 1.91 2.12 2.40 2.90 3.27 3.40
2.03 2.15 2.10 1.98 1.87 1.95 2.08 2.35 2.31 2.27 2.49 2.46 2.41 2.58 2.55 2.53 2.70 2.82 3.01 3.23 3.32 2.99 2.79 2.75 2.56 2.24 2.12 2.14 2.18 1.98 2.00 1.92 1.68 1.56 1.46 1.41 1.48 1.59 1.67 1.80 2.05 2.21 2.37
1.86 2.06 2.18 2.11 2.03 2.07 2.23 2.42 2.44 2.58 2.72 2.71 2.75 2.83 2.79 2.67 2.77 2.84 2.88 3.12 3.39 3.32 2.98 2.64 2.42 2.12 2.00 1.88 2.10 1.91 1.94 1.92 1.73 1.56 1.37 1.27 1.31 1.38 1.40 1.43 1.53 1.64 1.81
1.85 1.93 2.12 2.20 2.16 2.19 2.28 2.34 2.32 2.63 2.75 2.76 2.72 2.72 2.70 2.82 2.84 2.76 2.86 3.03 3.29 3.36 3.02 2.50 2.37 2.30 2.27 2.17 2.18 2.04 1.91 1.82 1.62 1.49 1.34 1.30 1.29 1.32 1.35 1.37 1.39 1.38 1.43
1.90 1.94 2.07 2.10 2.01 2.00 2.20 2.24 2.31 2.59 2.75 2.64 2.61 2.60 2.40 2.46 2.53 2.42 2.56 2.63 2.77 3.01 2.96 2.65 2.59 2.54 2.48 2.36 2.34 2.29 2.08 1.83 1.56 1.53 1.37 1.30 1.31 1.31 1.30 1.30 1.33 1.33 1.36
1.79 1.84 1.88 1.91 1.95 2.06 2.16 2.17 2.19 2.21 2.24 2.33 2.54 2.64 2.43 2.41 2.32 2.31 2.33 2.32 2.40 2.52 2.73 2.66 2.56 2.59 2.52 2.51 2.42 2.21 2.05 1.93 1.60 1.54 1.51 1.40 1.34 1.27 1.23 1.22 1.24 1.32 1.44
1.64 1.73 1.81 1.90 1.97 2.02 2.06 2.14 2.20 2.13 2.12 2.17 2.31 2.37 2.35 2.31 2.26 2.35 2.25 2.22 2.29 2.43 2.55 2.59 2.51 2.60 2.59 2.54 2.55 2.34 2.33 2.19 2.00 1.75 1.69 1.57 1.57 1.52 1.41 1.29 1.24 1.26 1.39
1.72 1.79 1.86 1.88 1.89 1.88 1.80 1.83 1.92 1.94 2.06 2.02 1.93 1.96 1.98 2.02 2.01 2.03 1.89 2.05 2.27 2.39 2.43 2.44 2.43 2.58 2.73 2.75 2.59 2.52 2.57 2.53 2.33 2.01 1.88 1.72 1.65 1.57 1.54 1.47 1.38 1.29 1.29
1.80 1.84 1.80 1.85 1.86 1.62 1.79 1.80 1.80 1.91 1.98 1.98 1.90 1.79 1.70 1.70 1.63 1.62 1.59 1.67 1.94 2.14 2.26 2.36 2.34 2.46 2.68 2.86 2.94 2.88 2.74 2.64 2.60 2.42 2.28 2.19 1.97 1.85 1.74 1.61 1.56 1.45 1.33
1.91 1.87 1.81 1.81 1.85 1.91 1.96 1.78 1.64 1.61 1.72 1.78 1.76 1.74 1.54 1.44 1.59 1.56 1.60 1.57 1.59 1.73 1.88 2.09 2.18 2.15 2.34 2.61 2.83 2.75 2.82 2.83 2.79 2.80 2.78 2.70 2.36 2.09 1.82 1.65 1.53 1.28 1.16
2.10 2.07 2.02 1.94 1.93 1.91 1.88 1.68 1.67 1.61 1.65 1.67 1.70 1.74 1.72 1.61 1.64 1.75 1.73 1.67 1.55 1.50 1.58 1.66 1.78 1.91 2.13 2.43 2.69 2.66 2.70 2.75 2.74 2.70 2.75 2.74 2.44 2.23 1.96 1.76 1.67 1.39 1.18
2.24 2.15 2.09 2.10 2.04 2.05 2.12 1.93 1.93 1.80 1.81 1.84 1.87 1.87 1.83 1.71 1.81 1.75 1.69 1.69 1.63 1.60 1.64 1.71 1.69 1.81 2.04 2.15 2.30 2.40 2.37 2.43 2.36 2.24 2.35 2.52 2.48 2.40 2.23 1.95 1.69 1.51 1.24
2.25 2.26 2.26 2.22 2.22 2.26 2.49 2.30 2.12 1.98 2.00 2.00 2.08 2.06 2.08 1.91 1.89 1.80 1.68 1.71 1.71 1.71 1.77 1.72 1.70 1.65 1.67 1.87 2.09 2.13 2.29 2.46 2.33 2.12 1.87 2.00 2.18 2.38 2.49 2.25 1.95 1.74 1.60